FW4012 Weather Reports


Display with metric or nautical units.
time (UTC)temp
F
wind
direction
speed
MPH
gust
MPH
rain 1hr
in
rain 24hr
in
rain mn
in
humidity
%
barometer
mb
20260505001746 56 296 1.0 4.0 0.00 0.00 0.00 82 1013.4
20260505001253 56 170 0.0 0.0 0.00 0.00 0.00 81 1013.4
20260505000750 55 113 0.0 0.0 0.00 0.00 0.00 81 1013.5
20260505000223 55 113 0.0 0.0 0.00 0.00 0.00 81 1013.6
20260504235741 55 113 0.0 1.0 0.00 0.00 0.00 81 1013.8
20260504235304 55 113 0.0 2.0 0.00 0.00 0.00 81 1013.8
20260504234827 55 113 0.0 2.0 0.00 0.00 0.00 81 1013.9
20260504233732 55 113 0.0 2.0 0.00 0.00 0.00 81 1013.9
20260504233233 55 113 1.0 2.0 0.00 0.00 0.00 81 1013.9
20260504232731 55 232 0.0 0.0 0.00 0.00 0.00 81 1013.9
20260504232229 55 232 0.0 0.0 0.00 0.00 0.00 81 1014.1
20260504231752 55 232 0.0 0.0 0.00 0.00 0.00 81 1014.0
20260504231231 55 232 0.0 0.0 0.00 0.00 0.00 81 1014.0
20260504230730 55 232 0.0 0.0 0.00 0.00 0.00 81 1014.1
20260504230250 55 232 0.0 1.0 0.00 0.00 0.00 81 1014.2
20260504225728 55 232 0.0 1.0 0.00 0.00 0.00 81 1014.3
20260504225228 55 232 0.0 1.0 0.00 0.00 0.00 81 1014.3
20260504224758 55 232 0.0 1.0 0.00 0.00 0.00 81 1014.4
20260504224237 55 232 0.0 0.0 0.00 0.00 0.00 81 1014.5
20260504223758 55 232 0.0 2.0 0.00 0.00 0.00 81 1014.5
20260504223252 55 232 0.0 2.0 0.00 0.00 0.00 81 1014.5
20260504222730 55 232 0.0 0.0 0.00 0.00 0.00 81 1014.6
20260504222259 55 232 0.0 0.0 0.00 0.00 0.00 81 1014.6
20260504221737 55 232 0.0 1.0 0.00 0.00 0.00 81 1014.6
20260504221237 55 232 0.0 1.0 0.00 0.00 0.00 81 1014.6
20260504220737 55 232 0.0 0.0 0.00 0.00 0.00 81 1014.6
20260504220257 55 232 0.0 0.0 0.00 0.00 0.00 81 1014.7
20260504215737 55 232 0.0 1.0 0.00 0.00 0.00 81 1014.7
20260504215237 55 232 0.0 1.0 0.00 0.00 0.00 81 1014.8
20260504214731 55 232 0.0 0.0 0.00 0.00 0.00 81 1014.8
20260504214231 54 232 0.0 1.0 0.00 0.00 0.00 81 1014.9
20260504213752 54 232 0.0 1.0 0.00 0.00 0.00 80 1014.9
20260504213230 54 232 0.0 1.0 0.00 0.00 0.00 80 1015.1
20260504212729 54 232 0.0 1.0 0.00 0.00 0.00 80 1015.0
20260504212227 55 232 0.0 0.0 0.00 0.00 0.00 79 1015.0
20260504211734 55 232 0.0 0.0 0.00 0.00 0.00 79 1015.0
20260504211235 55 232 0.0 2.0 0.00 0.00 0.00 79 1015.3
20260504210734 55 232 0.0 2.0 0.00 0.00 0.00 79 1015.3
20260504210255 55 232 0.0 1.0 0.00 0.00 0.00 78 1015.3
20260504205750 55 232 0.0 1.0 0.00 0.00 0.00 78 1015.3
20260504205238 56 232 0.0 1.0 0.00 0.00 0.00 78 1015.2
20260504204737 56 232 0.0 1.0 0.00 0.00 0.00 77 1015.2
20260504204236 56 232 0.0 1.0 0.00 0.00 0.00 77 1015.3
20260504203734 56 232 0.0 0.0 0.00 0.00 0.00 77 1015.3
20260504203232 56 232 0.0 0.0 0.00 0.00 0.00 76 1015.4
20260504202733 56 232 0.0 0.0 0.00 0.00 0.00 76 1015.3
20260504202233 57 232 0.0 0.0 0.00 0.00 0.00 76 1015.2
20260504201732 57 232 0.0 3.0 0.00 0.00 0.00 76 1015.1
20260504201227 57 232 0.0 3.0 0.00 0.00 0.00 76 1015.1
20260504200726 57 232 0.0 0.0 0.00 0.00 0.00 75 1015.1
20260504200246 57 232 0.0 0.0 0.00 0.00 0.00 74 1015.0
20260504195725 58 232 0.0 0.0 0.00 0.00 0.00 74 1015.1
20260504195225 58 232 0.0 1.0 0.00 0.00 0.00 74 1015.0
20260504194726 58 232 0.0 1.0 0.00 0.00 0.00 74 1015.0
20260504194255 58 232 0.0 1.0 0.00 0.00 0.00 74 1014.9
20260504193732 58 232 0.0 0.0 0.00 0.00 0.00 73 1014.8
20260504193230 58 232 0.0 0.0 0.00 0.00 0.00 72 1014.8
20260504192728 59 232 0.0 0.0 0.00 0.00 0.00 72 1014.8
20260504192222 59 232 0.0 1.0 0.00 0.00 0.00 71 1014.8
20260504191742 59 232 0.0 1.0 0.00 0.00 0.00 71 1014.7
20260504191240 59 232 0.0 0.0 0.00 0.00 0.00 70 1014.7
20260504190809 60 232 0.0 0.0 0.00 0.00 0.00 69 1014.6
20260504190246 60 232 0.0 0.0 0.00 0.00 0.00 68 1014.6
20260504185746 61 232 0.0 0.0 0.00 0.00 0.00 67 1014.6
20260504185247 61 232 0.0 0.0 0.00 0.00 0.00 67 1014.6
20260504184747 62 232 0.0 0.0 0.00 0.00 0.00 66 1014.5
20260504184248 62 232 0.0 0.0 0.00 0.00 0.00 65 1014.5
20260504183750 63 232 0.0 0.0 0.00 0.00 0.00 64 1014.5
20260504183239 63 232 0.0 1.0 0.00 0.00 0.00 64 1014.4
20260504182806 64 232 0.0 1.0 0.00 0.00 0.00 61 1014.5
20260504182244 64 232 0.0 1.0 0.00 0.00 0.00 61 1014.4
20260504181745 64 232 0.0 1.0 0.00 0.00 0.00 59 1014.4
20260504181244 65 232 0.0 1.0 0.00 0.00 0.00 59 1014.4
20260504180804 65 232 0.0 1.0 0.00 0.00 0.00 58 1014.4
20260504180240 65 232 0.0 2.0 0.00 0.00 0.00 57 1014.3
20260504175741 66 232 0.0 3.0 0.00 0.00 0.00 56 1014.4
20260504175239 66 232 0.0 3.0 0.00 0.00 0.00 54 1014.6
20260504174739 66 232 1.0 3.0 0.00 0.00 0.00 53 1014.4
20260504174238 66 232 1.0 2.0 0.00 0.00 0.00 51 1014.4
20260504173756 67 232 1.0 4.0 0.00 0.00 0.00 51 1014.4
20260504173235 67 232 1.0 4.0 0.00 0.00 0.00 50 1014.5
20260504172735 67 248 2.0 4.0 0.00 0.00 0.00 50 1014.4
20260504172234 67 240 2.0 4.0 0.00 0.00 0.00 49 1014.4
20260504171733 67 237 2.0 5.0 0.00 0.00 0.00 49 1014.4
20260504171232 67 240 3.0 5.0 0.00 0.00 0.00 48 1014.4
20260504170738 68 190 2.0 5.0 0.00 0.00 0.00 48 1014.5
20260504170237 68 196 3.0 6.0 0.00 0.00 0.00 49 1014.6
20260504160238 69 216 3.0 7.0 0.00 0.00 0.00 50 1014.6
20260504150734 70 223 4.0 10.0 0.00 0.00 0.00 47 1015.0
20260504150303 70 261 4.0 9.0 0.00 0.00 0.00 47 1015.0
20260504141235 71 259 4.0 8.0 0.00 0.00 0.00 49 1015.5
20260504140755 69 250 5.0 10.0 0.00 0.00 0.00 48 1015.6
20260504140241 70 238 5.0 11.0 0.00 0.00 0.00 46 1015.5
20260504130737 68 262 6.0 10.0 0.00 0.00 0.00 47 1015.9
20260504130236 68 270 6.0 10.0 0.00 0.00 0.00 47 1016.0
20260504120231 69 254 7.0 11.0 0.00 0.00 0.00 44 1016.6
20260504110238 67 178 4.0 8.0 0.00 0.00 0.00 50 1017.0
20260504100248 66 280 4.0 8.0 0.00 0.00 0.00 45 1017.3
20260504081735 64 157 2.0 3.0 0.00 0.00 0.00 50 1016.9
20260504081233 64 157 1.0 3.0 0.00 0.00 0.00 49 1017.0
20260504080725 64 157 1.0 5.0 0.00 0.00 0.00 51 1017.0
20260504080252 64 157 2.0 5.0 0.00 0.00 0.00 50 1017.0
20260504070227 60 210 1.0 2.0 0.00 0.00 0.00 69 1016.7
20260504060246 55 338 2.0 5.0 0.00 0.00 0.00 79 1016.3
20260504050258 49 178 0.0 0.0 0.00 0.00 0.00 83 1015.9
20260504045738 49 178 0.0 0.0 0.00 0.00 0.00 83 1015.8
20260504045239 49 179 0.0 0.0 0.00 0.00 0.00 82 1015.7
20260504044759 49 181 0.0 0.0 0.00 0.00 0.00 82 1015.7
20260504044238 49 182 0.0 1.0 0.00 0.00 0.00 82 1015.8
20260504043738 49 182 0.0 3.0 0.00 0.00 0.00 82 1015.7
20260504043231 49 186 2.0 3.0 0.00 0.00 0.00 82 1015.7
20260504042728 49 187 1.0 3.0 0.00 0.00 0.00 82 1015.6
20260504042226 48 186 1.0 3.0 0.00 0.00 0.00 82 1015.7
20260504041725 48 186 2.0 2.0 0.00 0.00 0.00 82 1015.7
20260504041227 48 186 0.0 1.0 0.00 0.00 0.00 82 1015.8
20260504040750 48 186 0.0 1.0 0.00 0.00 0.00 82 1015.7
20260504040250 48 186 0.0 1.0 0.00 0.00 0.00 82 1015.7
20260504035749 48 186 0.0 1.0 0.00 0.00 0.00 82 1015.6
20260504035248 48 186 0.0 1.0 0.00 0.00 0.00 82 1015.6
20260504034748 48 186 0.0 0.0 0.00 0.00 0.00 82 1015.8
20260504034248 48 186 0.0 1.0 0.00 0.00 0.00 82 1015.7
20260504033739 48 186 0.0 1.0 0.00 0.00 0.00 82 1015.7
20260504033308 48 186 0.0 2.0 0.00 0.00 0.00 82 1015.5
20260504032724 48 186 0.0 2.0 0.00 0.00 0.00 82 1015.6
20260504032241 48 186 1.0 3.0 0.00 0.00 0.00 82 1015.6
20260504031733 48 187 1.0 2.0 0.00 0.00 0.00 82 1015.6
20260504031254 48 187 0.0 1.0 0.00 0.00 0.00 82 1015.7
20260504030733 48 188 1.0 3.0 0.00 0.00 0.00 81 1015.7
20260504030231 48 188 1.0 3.0 0.00 0.00 0.00 81 1015.7
20260504025738 48 191 0.0 0.0 0.00 0.00 0.00 81 1015.8
20260504025234 48 192 0.0 0.0 0.00 0.00 0.00 81 1015.8
20260504024734 48 194 0.0 0.0 0.00 0.00 0.00 81 1015.8
20260504024234 49 181 0.0 0.0 0.00 0.00 0.00 81 1015.8
20260504023734 49 180 0.0 0.0 0.00 0.00 0.00 80 1015.8
20260504023253 49 179 0.0 0.0 0.00 0.00 0.00 80 1015.8
20260504022728 49 178 0.0 0.0 0.00 0.00 0.00 80 1015.9
20260504022245 49 178 0.0 0.0 0.00 0.00 0.00 80 1015.8
20260504021724 50 178 0.0 0.0 0.00 0.00 0.00 80 1015.8
20260504021242 50 178 0.0 0.0 0.00 0.00 0.00 80 1015.8
20260504020740 50 178 0.0 0.0 0.00 0.00 0.00 80 1015.9
20260504020238 51 178 0.0 0.0 0.00 0.00 0.00 80 1015.8
20260504015806 51 177 0.0 0.0 0.00 0.00 0.00 80 1015.7
20260504015245 51 177 0.0 0.0 0.00 0.00 0.00 80 1015.8
20260504014723 51 177 0.0 0.0 0.00 0.00 0.00 80 1015.8
20260504014222 52 177 0.0 0.0 0.00 0.00 0.00 80 1015.9
20260504013759 52 177 0.0 0.0 0.00 0.00 0.00 80 1015.8
20260504013238 52 177 0.0 0.0 0.00 0.00 0.00 80 1015.9
20260504012736 53 177 0.0 0.0 0.00 0.00 0.00 80 1015.8
20260504012235 53 177 0.0 0.0 0.00 0.00 0.00 80 1015.8
20260504011735 53 177 0.0 0.0 0.00 0.00 0.00 80 1015.8
20260504011234 53 177 0.0 0.0 0.00 0.00 0.00 80 1015.8
20260504010735 53 177 0.0 0.0 0.00 0.00 0.00 80 1015.8
20260504010235 53 177 0.0 0.0 0.00 0.00 0.00 80 1015.8
20260504005744 53 177 0.0 0.0 0.00 0.00 0.00 80 1015.8
20260504005233 53 177 0.0 0.0 0.00 0.00 0.00 80 1015.8
20260504004728 53 177 0.0 0.0 0.00 0.00 0.00 81 1015.9
20260504004230 53 177 0.0 0.0 0.00 0.00 0.00 81 1016.0
20260504003730 53 177 0.0 0.0 0.00 0.00 0.00 81 1016.0
20260504003228 53 177 0.0 0.0 0.00 0.00 0.00 81 1016.2
20260504002727 53 177 0.0 0.0 0.00 0.00 0.00 81 1016.2
20260504002226 53 177 0.0 0.0 0.00 0.00 0.00 81 1016.2